Location: Brno
(49.2000°N, 16.6330°E)
Time: 11:06:44
(UTC+02:00)

ISS - Pass Details

Date: 18 May 2021
Orbit: 417 x 422 km, 51.6° (Epoch: 13 June)

Event Time Altitude Azimuth Distance (km) Brightness Sun altitude
Rises 01:17:52 0° 288° (WNW) 2,370 0.2 -21.0°
Reaches altitude 10° 01:19:58 10° 289° (WNW) 1,506 -0.8 -20.9°
Enters shadow 01:22:48 59° 304° (NW) 492 -3.4 -20.9°
